| time (UTC) | temp C | wind direction | speed KPH | gust KPH | rain 1hr cm | rain 24hr cm | rain mn cm | humidity % | barometer mb |
| 20260504025005 | 16 | 36 | 3.2 | 9.7 | 0.00 | 0.00 | 0.00 | 38 | 996.6 |
| 20260504024502 | 16 | 30 | 4.8 | 9.7 | 0.00 | 0.00 | 0.00 | 38 | 996.8 |
| 20260504024001 | 16 | 340 | 6.4 | 9.7 | 0.00 | 0.00 | 0.00 | 37 | 996.8 |
| 20260504023500 | 16 | 26 | 1.6 | 9.7 | 0.00 | 0.00 | 0.00 | 37 | 997.0 |
| 20260504022504 | 16 | 323 | 0.0 | 12.9 | 0.00 | 0.00 | 0.00 | 37 | 997.0 |
| 20260504022001 | 16 | 69 | 1.6 | 12.9 | 0.00 | 0.00 | 0.00 | 37 | 997.2 |
| 20260504021503 | 16 | 90 | 3.2 | 14.5 | 0.00 | 0.00 | 0.00 | 37 | 997.3 |
| 20260504021000 | 16 | 35 | 0.0 | 14.5 | 0.00 | 0.00 | 0.00 | 37 | 997.5 |
| 20260504020503 | 16 | 21 | 0.0 | 8.0 | 0.00 | 0.00 | 0.00 | 38 | 997.5 |
| 20260504020000 | 16 | 23 | 0.0 | 8.0 | 0.00 | 0.00 | 0.00 | 37 | 997.8 |
| 20260504014502 | 17 | 114 | 1.6 | 11.3 | 0.00 | 0.00 | 0.00 | 37 | 998.0 |
| 20260504014002 | 17 | 23 | 0.0 | 11.3 | 0.00 | 0.00 | 0.00 | 37 | 998.3 |
| 20260504013501 | 17 | 120 | 6.4 | 6.4 | 0.00 | 0.00 | 0.00 | 37 | 998.2 |
| 20260504013000 | 17 | 75 | 3.2 | 9.7 | 0.00 | 0.00 | 0.00 | 37 | 998.4 |
| 20260504012500 | 17 | 90 | 0.0 | 14.5 | 0.00 | 0.00 | 0.00 | 36 | 998.5 |
| 20260504012005 | 17 | 123 | 3.2 | 14.5 | 0.00 | 0.00 | 0.00 | 36 | 998.4 |
| 20260504011505 | 17 | 61 | 3.2 | 11.3 | 0.00 | 0.00 | 0.00 | 36 | 998.4 |
| 20260504011003 | 17 | 66 | 1.6 | 11.3 | 0.00 | 0.00 | 0.00 | 36 | 998.7 |
| 20260504010504 | 17 | 81 | 4.8 | 14.5 | 0.00 | 0.00 | 0.00 | 35 | 998.8 |
| 20260504005502 | 18 | 63 | 4.8 | 11.3 | 0.00 | 0.00 | 0.00 | 35 | 999.2 |
| 20260504004501 | 19 | 139 | 9.7 | 11.3 | 0.00 | 0.00 | 0.00 | 33 | 999.6 |
| 20260504004002 | 19 | 63 | 0.0 | 11.3 | 0.00 | 0.00 | 0.00 | 33 | 999.5 |
| 20260504003500 | 18 | 80 | 3.2 | 11.3 | 0.00 | 0.00 | 0.00 | 33 | 999.8 |
| 20260504003001 | 18 | 96 | 4.8 | 14.5 | 0.00 | 0.00 | 0.00 | 33 | 999.6 |
| 20260504002502 | 18 | 90 | 3.2 | 14.5 | 0.00 | 0.00 | 0.00 | 33 | 999.8 |
| 20260504002003 | 18 | 0 | 0.0 | 14.5 | 0.00 | 0.00 | 0.00 | 34 | 1000.0 |
| 20260504001501 | 18 | 137 | 6.4 | 14.5 | 0.00 | 0.00 | 0.00 | 33 | 1000.1 |
| 20260504001001 | 18 | 94 | 3.2 | 11.3 | 0.00 | 0.00 | 0.00 | 33 | 1000.0 |
| 20260504000501 | 18 | 80 | 6.4 | 11.3 | 0.00 | 0.00 | 0.00 | 33 | 1000.4 |
| 20260503235500 | 19 | 172 | 4.8 | 16.1 | 0.00 | 0.00 | 0.00 | 32 | 1000.6 |
| 20260503235002 | 18 | 50 | 3.2 | 19.3 | 0.00 | 0.00 | 0.00 | 32 | 1000.4 |
| 20260503234501 | 19 | 70 | 4.8 | 19.3 | 0.00 | 0.00 | 0.00 | 33 | 1000.7 |
| 20260503234001 | 19 | 122 | 6.4 | 16.1 | 0.00 | 0.00 | 0.00 | 32 | 1000.6 |
| 20260503233503 | 19 | 12 | 0.0 | 12.9 | 0.00 | 0.00 | 0.00 | 32 | 1000.9 |
| 20260503233002 | 20 | 63 | 1.6 | 17.7 | 0.00 | 0.00 | 0.00 | 31 | 1000.7 |
| 20260503232501 | 20 | 118 | 9.7 | 22.5 | 0.00 | 0.00 | 0.00 | 30 | 1001.1 |
| 20260503232000 | 20 | 32 | 4.8 | 22.5 | 0.00 | 0.00 | 0.00 | 30 | 1001.5 |
| 20260503231501 | 20 | 90 | 6.4 | 14.5 | 0.00 | 0.00 | 0.00 | 29 | 1001.6 |
| 20260503231001 | 20 | 19 | 3.2 | 14.5 | 0.00 | 0.00 | 0.00 | 30 | 1001.6 |
| 20260503230501 | 20 | 132 | 9.7 | 14.5 | 0.00 | 0.00 | 0.00 | 31 | 1001.6 |
| 20260503230002 | 21 | 77 | 1.6 | 16.1 | 0.00 | 0.00 | 0.00 | 30 | 1001.9 |
| 20260503225503 | 20 | 81 | 6.4 | 16.1 | 0.00 | 0.00 | 0.00 | 30 | 1001.8 |
| 20260503225001 | 21 | 110 | 3.2 | 14.5 | 0.00 | 0.00 | 0.00 | 31 | 1002.1 |
| 20260503223503 | 20 | 114 | 1.6 | 17.7 | 0.00 | 0.00 | 0.00 | 33 | 1002.3 |
| 20260503223001 | 20 | 137 | 14.5 | 17.7 | 0.00 | 0.00 | 0.00 | 31 | 1002.3 |
| 20260503222500 | 20 | 138 | 4.8 | 19.3 | 0.00 | 0.00 | 0.00 | 31 | 1002.6 |
| 20260503222003 | 20 | 53 | 3.2 | 19.3 | 0.00 | 0.00 | 0.00 | 32 | 1002.5 |
| 20260503221503 | 19 | 139 | 6.4 | 16.1 | 0.00 | 0.00 | 0.00 | 33 | 1002.7 |
| 20260503221002 | 19 | 194 | 1.6 | 17.7 | 0.00 | 0.00 | 0.00 | 32 | 1002.7 |
| 20260503220503 | 20 | 120 | 11.3 | 17.7 | 0.00 | 0.00 | 0.00 | 31 | 1002.8 |
| 20260503220003 | 20 | 191 | 6.4 | 17.7 | 0.00 | 0.00 | 0.00 | 30 | 1002.8 |
| 20260503215502 | 20 | 73 | 3.2 | 14.5 | 0.00 | 0.00 | 0.00 | 30 | 1003.0 |
| 20260503215003 | 21 | 72 | 6.4 | 14.5 | 0.00 | 0.00 | 0.00 | 28 | 1003.2 |
| 20260503214004 | 20 | 156 | 3.2 | 20.9 | 0.00 | 0.00 | 0.00 | 28 | 1003.3 |
| 20260503213505 | 20 | 94 | 8.0 | 20.9 | 0.00 | 0.00 | 0.00 | 27 | 1003.7 |
| 20260503213001 | 20 | 149 | 4.8 | 17.7 | 0.00 | 0.00 | 0.00 | 27 | 1003.6 |
| 20260503212500 | 20 | 110 | 6.4 | 16.1 | 0.00 | 0.00 | 0.00 | 28 | 1004.1 |
| 20260503212000 | 20 | 96 | 1.6 | 12.9 | 0.00 | 0.00 | 0.00 | 28 | 1004.0 |
| 20260503211503 | 20 | 110 | 4.8 | 14.5 | 0.00 | 0.00 | 0.00 | 28 | 1004.1 |
| 20260503211002 | 20 | 117 | 3.2 | 17.7 | 0.00 | 0.00 | 0.00 | 30 | 1004.1 |
| 20260503210501 | 20 | 122 | 6.4 | 17.7 | 0.00 | 0.00 | 0.00 | 28 | 1004.4 |
| 20260503210003 | 20 | 36 | 3.2 | 12.9 | 0.00 | 0.00 | 0.00 | 29 | 1004.4 |
| 20260503205501 | 18 | 134 | 12.9 | 12.9 | 0.00 | 0.00 | 0.00 | 29 | 1004.5 |
| 20260503204503 | 19 | 53 | 3.2 | 14.5 | 0.00 | 0.00 | 0.00 | 30 | 1004.6 |
| 20260503204001 | 20 | 159 | 3.2 | 14.5 | 0.00 | 0.00 | 0.00 | 30 | 1004.6 |
| 20260503203456 | 20 | 65 | 3.2 | 16.1 | 0.00 | 0.00 | 0.00 | 29 | 1004.5 |
| 20260503202956 | 20 | 173 | 6.4 | 16.1 | 0.00 | 0.00 | 0.00 | 28 | 1004.7 |
| 20260503202456 | 20 | 62 | 4.8 | 12.9 | 0.00 | 0.00 | 0.00 | 29 | 1004.6 |
| 20260503202001 | 19 | 150 | 3.2 | 12.9 | 0.00 | 0.00 | 0.00 | 30 | 1005.0 |
| 20260503200953 | 19 | 132 | 6.4 | 14.5 | 0.00 | 0.00 | 0.00 | 31 | 1005.0 |
| 20260503200454 | 19 | 64 | 4.8 | 14.5 | 0.00 | 0.00 | 0.00 | 31 | 1005.3 |
| 20260503195952 | 19 | 86 | 4.8 | 12.9 | 0.00 | 0.00 | 0.00 | 29 | 1005.3 |
| 20260503195454 | 19 | 132 | 3.2 | 24.1 | 0.00 | 0.00 | 0.00 | 31 | 1005.5 |
| 20260503194952 | 19 | 154 | 3.2 | 24.1 | 0.00 | 0.00 | 0.00 | 31 | 1005.7 |
| 20260503194453 | 19 | 110 | 3.2 | 14.5 | 0.00 | 0.00 | 0.00 | 30 | 1005.9 |
| 20260503193453 | 19 | 74 | 4.8 | 17.7 | 0.00 | 0.00 | 0.00 | 30 | 1005.9 |
| 20260503192953 | 18 | 180 | 1.6 | 11.3 | 0.00 | 0.00 | 0.00 | 31 | 1006.1 |
| 20260503192453 | 19 | 139 | 6.4 | 12.9 | 0.00 | 0.00 | 0.00 | 32 | 1006.0 |
| 20260503191951 | 18 | 170 | 4.8 | 16.1 | 0.00 | 0.00 | 0.00 | 32 | 1006.4 |
| 20260503190448 | 18 | 134 | 8.0 | 24.1 | 0.00 | 0.00 | 0.00 | 31 | 1006.7 |
| 20260503185950 | 17 | 166 | 3.2 | 16.1 | 0.00 | 0.00 | 0.00 | 33 | 1007.0 |
| 20260503185437 | 17 | 108 | 9.7 | 16.1 | 0.00 | 0.00 | 0.00 | 31 | 1006.7 |
| 20260503184939 | 17 | 157 | 6.4 | 16.1 | 0.00 | 0.00 | 0.00 | 32 | 1006.9 |
| 20260503183932 | 18 | 168 | 6.4 | 16.1 | 0.00 | 0.00 | 0.00 | 31 | 1007.1 |
| 20260503183432 | 17 | 197 | 6.4 | 12.9 | 0.00 | 0.00 | 0.00 | 31 | 1007.2 |
| 20260503182931 | 17 | 76 | 4.8 | 12.9 | 0.00 | 0.00 | 0.00 | 33 | 1007.3 |
| 20260503182434 | 17 | 191 | 6.4 | 20.9 | 0.00 | 0.00 | 0.00 | 32 | 1007.4 |
| 20260503181933 | 17 | 139 | 3.2 | 20.9 | 0.00 | 0.00 | 0.00 | 35 | 1007.4 |
| 20260503181431 | 17 | 130 | 3.2 | 12.9 | 0.00 | 0.00 | 0.00 | 34 | 1007.4 |
| 20260503180931 | 17 | 85 | 3.2 | 19.3 | 0.00 | 0.00 | 0.00 | 34 | 1007.5 |
| 20260503180433 | 16 | 159 | 4.8 | 19.3 | 0.00 | 0.00 | 0.00 | 34 | 1007.8 |
| 20260503175932 | 17 | 150 | 4.8 | 12.9 | 0.00 | 0.00 | 0.00 | 35 | 1007.9 |
| 20260503175432 | 16 | 132 | 3.2 | 12.9 | 0.00 | 0.00 | 0.00 | 33 | 1007.8 |
| 20260503174931 | 16 | 135 | 4.8 | 12.9 | 0.00 | 0.00 | 0.00 | 34 | 1007.7 |
| 20260503174432 | 16 | 110 | 3.2 | 9.7 | 0.00 | 0.00 | 0.00 | 34 | 1007.9 |
| 20260503173932 | 16 | 132 | 3.2 | 16.1 | 0.00 | 0.00 | 0.00 | 34 | 1008.4 |
| 20260503173432 | 15 | 85 | 3.2 | 17.7 | 0.00 | 0.00 | 0.00 | 36 | 1008.3 |
| 20260503172933 | 16 | 164 | 8.0 | 17.7 | 0.00 | 0.00 | 0.00 | 33 | 1008.2 |
| 20260503172432 | 16 | 160 | 4.8 | 12.9 | 0.00 | 0.00 | 0.00 | 36 | 1008.3 |
| 20260503171932 | 16 | 117 | 6.4 | 12.9 | 0.00 | 0.00 | 0.00 | 34 | 1008.2 |
| 20260503171430 | 16 | 135 | 4.8 | 16.1 | 0.00 | 0.00 | 0.00 | 35 | 1008.5 |
| 20260503170929 | 15 | 112 | 11.3 | 16.1 | 0.00 | 0.00 | 0.00 | 36 | 1008.5 |
| 20260503170430 | 15 | 341 | 4.8 | 11.3 | 0.00 | 0.00 | 0.00 | 37 | 1008.5 |
| 20260503150901 | 12 | 210 | 4.8 | 12.9 | 0.00 | 0.00 | 0.00 | 37 | 1009.5 |
| 20260503150403 | 12 | 148 | 3.2 | 12.9 | 0.00 | 0.00 | 0.00 | 38 | 1009.4 |
| 20260503130902 | 8 | 173 | 1.6 | 9.7 | 0.00 | 0.00 | 0.00 | 57 | 1009.2 |
| 20260503130400 | 8 | 126 | 1.6 | 9.7 | 0.00 | 0.00 | 0.00 | 58 | 1009.2 |
| 20260503090305 | 5 | 111 | 0.0 | 3.2 | 0.00 | 0.00 | 0.00 | 89 | 1007.8 |
| 20260503081216 | 3 | 114 | 0.0 | 0.0 | 0.00 | 0.00 | 0.00 | 96 | 1007.8 |
| 20260503080203 | 3 | 114 | 0.0 | 1.6 | 0.00 | 0.00 | 0.00 | 95 | 1007.6 |
| 20260503072705 | 3 | 69 | 0.0 | 3.2 | 0.00 | 0.00 | 0.00 | 94 | 1007.5 |
| 20260503072204 | 3 | 131 | 0.0 | 3.2 | 0.00 | 0.00 | 0.00 | 94 | 1007.7 |
| 20260503071704 | 3 | 105 | 0.0 | 3.2 | 0.00 | 0.00 | 0.00 | 94 | 1007.5 |
| 20260503071205 | 4 | 157 | 0.0 | 0.0 | 0.00 | 0.00 | 0.00 | 94 | 1007.5 |
| 20260503070703 | 3 | 157 | 0.0 | 0.0 | 0.00 | 0.00 | 0.00 | 94 | 1007.6 |
| 20260503070200 | 3 | 157 | 0.0 | 1.6 | 0.00 | 0.00 | 0.00 | 93 | 1007.5 |
| 20260503060204 | 5 | 157 | 0.0 | 0.0 | 0.00 | 0.00 | 0.00 | 88 | 1007.9 |
| 20260503054703 | 6 | 157 | 0.0 | 1.6 | 0.00 | 0.00 | 0.00 | 85 | 1007.9 |
| 20260503054205 | 6 | 157 | 0.0 | 1.6 | 0.00 | 0.00 | 0.00 | 84 | 1007.9 |
| 20260503053204 | 6 | 74 | 0.0 | 1.6 | 0.00 | 0.00 | 0.00 | 83 | 1007.6 |
| 20260503052200 | 6 | 151 | 0.0 | 0.0 | 0.00 | 0.00 | 0.00 | 81 | 1007.5 |
| 20260503051201 | 7 | 151 | 0.0 | 0.0 | 0.00 | 0.00 | 0.00 | 79 | 1007.6 |
| 20260503050702 | 7 | 151 | 0.0 | 1.6 | 0.00 | 0.00 | 0.00 | 79 | 1007.5 |
| 20260503050203 | 7 | 151 | 0.0 | 1.6 | 0.00 | 0.00 | 0.00 | 78 | 1007.9 |
| 20260503045701 | 8 | 151 | 0.0 | 1.6 | 0.00 | 0.00 | 0.00 | 77 | 1007.7 |
| 20260503045200 | 8 | 40 | 0.0 | 3.2 | 0.00 | 0.00 | 0.00 | 76 | 1007.5 |
| 20260503044705 | 9 | 353 | 0.0 | 4.8 | 0.00 | 0.00 | 0.00 | 75 | 1007.6 |
| 20260503044205 | 9 | 289 | 0.0 | 4.8 | 0.00 | 0.00 | 0.00 | 75 | 1007.8 |
| 20260503043732 | 8 | 279 | 0.0 | 0.0 | 0.00 | 0.00 | 0.00 | 77 | 1007.8 |
| 20260503043204 | 8 | 166 | 0.0 | 1.6 | 0.00 | 0.00 | 0.00 | 76 | 1007.8 |
| 20260503042203 | 9 | 120 | 0.0 | 4.8 | 0.00 | 0.00 | 0.00 | 73 | 1007.5 |
| 20260503041200 | 9 | 246 | 0.0 | 3.2 | 0.00 | 0.00 | 0.00 | 71 | 1007.4 |
| 20260503040720 | 9 | 99 | 0.0 | 1.6 | 0.00 | 0.00 | 0.00 | 71 | 1007.5 |
| 20260503040201 | 9 | 99 | 0.0 | 1.6 | 0.00 | 0.00 | 0.00 | 70 | 1007.6 |
| 20260503035701 | 10 | 279 | 0.0 | 0.0 | 0.00 | 0.00 | 0.00 | 68 | 1007.9 |
| 20260503035200 | 10 | 279 | 0.0 | 0.0 | 0.00 | 0.00 | 0.00 | 67 | 1007.7 |
| 20260503034704 | 10 | 279 | 0.0 | 0.0 | 0.00 | 0.00 | 0.00 | 65 | 1007.7 |
| 20260503034205 | 10 | 279 | 0.0 | 0.0 | 0.00 | 0.00 | 0.00 | 65 | 1007.6 |
| 20260503033710 | 10 | 180 | 0.0 | 1.6 | 0.00 | 0.00 | 0.00 | 66 | 1007.7 |
| 20260503033205 | 10 | 180 | 0.0 | 1.6 | 0.00 | 0.00 | 0.00 | 66 | 1007.6 |
| 20260503032705 | 10 | 154 | 0.0 | 1.6 | 0.00 | 0.00 | 0.00 | 66 | 1008.0 |
| 20260503032205 | 11 | 180 | 0.0 | 0.0 | 0.00 | 0.00 | 0.00 | 62 | 1007.8 |
| 20260503031703 | 11 | 180 | 0.0 | 1.6 | 0.00 | 0.00 | 0.00 | 60 | 1007.6 |
| 20260503031204 | 12 | 180 | 0.0 | 3.2 | 0.00 | 0.00 | 0.00 | 58 | 1007.6 |
| 20260503030206 | 12 | 7 | 0.0 | 9.7 | 0.00 | 0.00 | 0.00 | 54 | 1007.4 |
| 20260503025703 | 12 | 276 | 1.6 | 9.7 | 0.00 | 0.00 | 0.00 | 56 | 1007.3 |